Kosmos-1159

operational
NORAD ID: 11694 Int'l Des: 1980-012 Owner: GUKOSR Country: SU
LEOCIRCULAR

Kosmos-1159について

説明を読み込み中...

リアルタイム位置

3D地球を読み込み中...

次回通過

高度履歴

Altitude vs Time

uPlot chart will show altitude changes over time

軌道要素

1 11694U 80012D 26062.56737667 .00000015 00000-0 20060-3 0 9992
2 11694 74.0182 96.7437 0017232 72.4509 45.8535 12.50125669101776
Epoch: Mar 3, 2026 • Age: 40 hours

現在のステータス

高度 1483.7 km
速度 7.12 km/s
衛星直下点 -39.68°S, 44.42°E
打ち上げ日 Feb 11, 1980
運用期間 46 years
タイプ other

技術仕様

分類 Payload
質量 60.00 kg
乾燥質量 60.00 kg
総質量 60.00 kg
長さ 0.80 m
直径 0.80 m
スパン 0.80 m
形状 Poly
製造者 NPOPM
バスタイプ Strela-1 11F625
フェーズステータス In Orbit
所有者/国 GUKOSR/SU

大規模コンステレーション

Loading constellations...